Location: Gönnheim
(49.4488°N, 8.2383°E)
Time: 00:24:33
(UTC+00:00)

Lacrosse 4 Rocket - Pass Details

Date: 19 May 2025
Orbit: 513 x 576 km, 68.0° (Epoch: 22 June)

Event Time Altitude Azimuth Distance (km) Brightness Sun altitude
Rises 20:17:14 0° 250° (WSW) 2,639 5.1 -9.2°
Reaches altitude 10° 20:19:45 10° 265° (W) 1,763 4.5 -9.5°
Maximum altitude 20:22:54 23° 319° (NW) 1,171 4.1 -9.9°
Drops below altitude 10° 20:26:07 10° 12° (NNE) 1,798 4.5 -10.2°
Sets 20:28:42 0° 28° (NNE) 2,707 5.1 -10.5°
